Погода в Велье

Россия / Псковская область     56°58′14″N   28°34′43″E
темп.,
°C
ветер,
м/с
пор.,
м/с
влажн.,
%
обл.,
%
осадки,
мм/ч
давл.,
гПа
погр.,
м
13 июня, вс
вс1300:00+14ю348999 0.2 100262
03:00+13ююз2296100 0.2 100136
06:00+12з4793100 0.0 1002350
09:00+12зсз3791100 0.1 1003440
12:00+13з2594100 0.4 1005338
15:00+13сз2492100 1.1 1006273
18:00+15ссз368399 0.0 1008467
21:00+14ссз41092100 0.0 1010572
14 июня, пн
пн1400:00+12ссз5129499 0.0 1012514
03:00+10ссз4109817 0.0 1014326
06:00+10с412924 0.0 1016428
09:00+15с576966 0.0 1017744
12:00+19с445415 0.0 10181380
15:00+21ссз32474 0.0 10171507
18:00+21ссз22485 0.0 10171257
21:00+16ссв006313 0.0 101611
15 июня, вт
вт1500:00+13юз2271100 0.0 101611
03:00+11юз33808 0.0 101539
06:00+11юз37805 0.0 1015155
09:00+17юз5860100 0.0 1014602
12:00+20зюз6755100 0.0 10131081
15:00+21зюз6862100 0.1 10121506
18:00+17з51090100 1.5 1012604
21:00+15зсз3895100 1.8 1013404
16 июня, ср
ср1600:00+10зсз39910 0.0 1014152
03:00+8зсз37950 0.0 1016124
06:00+9сз27950 0.0 1018203
09:00+15с357420 0.0 1019521
12:00+19с45485 0.0 10201491
15:00+20ссз3442100 0.0 10211593
18:00+20ссз345198 0.0 10211246
21:00+16с226844 0.0 102213
17 июня, чт
чт1700:00+12всв11674 0.0 102310
03:00+10юв00735 0.0 102510
06:00+12ю11765 0.0 102512
09:00+18ю11595 0.0 1026300
12:00+22ююв22435 0.0 10251244
15:00+25ю12370 0.0 10251689
18:00+25з11400 0.0 10241778
21:00+19с22690 0.0 102411